Change the Weather History Date:

Tuesday, October 30, 2012

  Actual Average Record
Temperature  
Mean Temperature 38 °F 45 °F  
Max Temperature 53 °F 55 °F 82 °F (1924)
Min Temperature 23 °F 34 °F 0 °F (1925)
Degree Days  
Heating Degree Days 27 20  
Month to date heating degree days 484 445  
Since 1 July heating degree days 666 603  
Cooling Degree Days 0 0  
Month to date cooling degree days 7 8  
Year to date cooling degree days 1083 798  
Moisture  
Dew Point 24 °F    
Average Humidity 58    
Maximum Humidity 88    
Minimum Humidity 28    
Precipitation  
Precipitation 0.00 in 0.07 in 1.21 in (1974)
Month to date precipitation 3.86 2.41  
Year to date precipitation 21.18 31.32  
Snow  
Snow 0.00 in 0.10 in 1.00 in (1923)
Month to date snowfall 0.0 0.3  
Since 1 July snowfall 0.0 0.3  
Since 1 September snowfall 0.0 0.3  
Snow Depth 0.00 in    
Sea Level Pressure  
Sea Level Pressure 30.10 in    
Wind  
Wind Speed 9 mph (NNW)    
Max Wind Speed 22 mph    
Max Gust Speed 28 mph    
Visibility 10 miles    
Events      
T = Trace of Precipitation, MM = Missing Value Source: NWS Daily Summary

Daily Weather History Graph

Daily Weather History Graph

Search for Another Location

Airport or City:

Trip Planner

Search our weather history database for the weather conditions in past years. The results will help you decide how hot, cold, wet, or windy it might be!

Date:

Astronomy

Oct. 30, 2012 Rise Set
Actual Time 7:41 AM CDT 6:04 PM CDT
Civil Twilight 7:12 AM CDT 6:33 PM CDT
Nautical Twilight 6:38 AM CDT 7:06 PM CDT
Astronomical Twilight 6:06 AM CDT 7:39 PM CDT
Moon 6:32 PM CDT (10/30) 8:30 AM CDT (10/30)
Length of Visible Light 11h 21m
Length of Day
10h 23m
Full, 99% of the Moon is Illuminated
Oct 30
Full
Nov 6
Last Quarter
Nov 13
New
Nov 20
First Quarter
Nov 28
Full

Hourly Weather History & Observations

Time (CDT) Temp. Windchill Dew Point Humidity Pressure Visibility Wind Dir Wind Speed Gust Speed Precip Events Conditions
12:54 AM 30.0 °F - 25.0 °F 82% 30.22 in 10.0 mi Calm Calm - N/A   Clear
1:54 AM 28.4 °F - 24.8 °F 86% 30.19 in 10.0 mi Calm Calm - N/A   Clear
2:54 AM 27.0 °F - 21.9 °F 81% 30.21 in 9.0 mi Calm Calm - N/A   Clear
3:54 AM 25.0 °F - 21.9 °F 88% 30.19 in 10.0 mi Calm Calm - N/A   Clear
4:54 AM 25.0 °F - 21.0 °F 85% 30.18 in 10.0 mi Calm Calm - N/A   Clear
5:54 AM 25.0 °F - 21.9 °F 88% 30.18 in 10.0 mi Calm Calm - N/A   Clear
6:54 AM 24.8 °F - 21.2 °F 86% 30.15 in 10.0 mi Calm Calm - N/A   Clear
7:54 AM 24.1 °F 19.7 °F 19.9 °F 84% 30.18 in 10.0 mi NNW 3.5 mph - N/A   Clear
8:54 AM 33.1 °F 30.0 °F 27.0 °F 78% 30.17 in 10.0 mi NNW 3.5 mph - N/A   Clear
9:54 AM 39.9 °F 32.9 °F 28.0 °F 63% 30.16 in 10.0 mi NNE 11.5 mph - N/A   Clear
10:54 AM 44.1 °F 37.7 °F 27.0 °F 51% 30.14 in 10.0 mi NNE 12.7 mph - N/A   Clear
11:54 AM 46.9 °F - 28.0 °F 48% 30.12 in 10.0 mi North 16.1 mph - N/A   Clear
12:54 PM 50.0 °F - 27.0 °F 41% 30.09 in 10.0 mi North 18.4 mph - N/A   Clear
1:54 PM 52.0 °F - 21.9 °F 31% 30.05 in 10.0 mi North 16.1 mph 25.3 mph N/A   Clear
2:54 PM 53.1 °F - 21.0 °F 29% 30.02 in 10.0 mi North 16.1 mph 27.6 mph N/A   Clear
3:54 PM 53.1 °F - 21.0 °F 29% 30.01 in 10.0 mi NNW 18.4 mph 24.2 mph N/A   Clear
4:54 PM 51.1 °F - 21.0 °F 31% 30.00 in 10.0 mi NNW 18.4 mph - N/A   Clear
5:54 PM 46.9 °F - 21.0 °F 36% 30.01 in 10.0 mi North 15.0 mph - N/A   Clear
6:54 PM 37.9 °F 32.7 °F 25.0 °F 60% 30.02 in 10.0 mi NNW 6.9 mph - N/A   Clear
7:54 PM 37.9 °F 31.5 °F 28.0 °F 68% 30.03 in 10.0 mi NNW 9.2 mph - N/A   Clear
8:54 PM 32.0 °F 26.4 °F 26.1 °F 79% 30.02 in 10.0 mi NNW 5.8 mph - N/A   Clear
9:54 PM 35.1 °F 28.6 °F 26.1 °F 70% 30.02 in 10.0 mi NW 8.1 mph - N/A   Clear
10:54 PM 32.0 °F 23.6 °F 25.0 °F 75% 30.01 in 10.0 mi NW 10.4 mph - N/A   Clear
11:54 PM 32.0 °F 23.6 °F 25.0 °F 75% 30.01 in 10.0 mi NW 10.4 mph - N/A   Clear